TLP1401 LEMG-EHAM

Flight info

Callsign TLP1401
Flight time N/A
Altitude 34000
Route BLN DCT MORAL DCT BEXID DCT VTB DCT RBO DCT OSTIX DCT GASMO DCT DGO DCT CEGAM DCT BAGAS DCT SSN DCT LUSEM DCT LULUT DCT ADABI DCT BOKNO UN858 VANAD UN874 ARSAF DCT EGOZE DCT CMB DCT VEKIN DCT ADUTO N873 FERDI/N0367F240 Y18 DENUT
Aircraft B738/M-SDE2E3FGHIRWXY/LB1

Departure

Time 2026-05-05 09:05
Airport Málaga-Costa del Sol Airport (LEMG)

Arrival

Time N/A
Airport Amsterdam Airport Schiphol (EHAM)
Time Latitude Longitude Altitude Speed Heading
2026-05-05 08:46 36.68034 -4.49277 41 ft 0 kts 207°
2026-05-05 09:00 36.68026 -4.49274 40 ft 2 kts 150°
2026-05-05 09:00 36.68033 -4.49256 41 ft 4 kts 26°
2026-05-05 09:00 36.68063 -4.49238 39 ft 5 kts 26°
2026-05-05 09:01 36.68090 -4.49204 41 ft 7 kts 91°
2026-05-05 09:01 36.68072 -4.49151 41 ft 7 kts 117°
2026-05-05 09:01 36.68048 -4.49094 41 ft 9 kts 117°
2026-05-05 09:01 36.68010 -4.49004 41 ft 15 kts 117°
2026-05-05 09:02 36.67956 -4.48875 41 ft 18 kts 117°
2026-05-05 09:02 36.67898 -4.48737 40 ft 18 kts 117°
2026-05-05 09:02 36.67842 -4.48603 40 ft 17 kts 118°
2026-05-05 09:02 36.67787 -4.48473 39 ft 16 kts 117°
2026-05-05 09:03 36.67736 -4.48350 41 ft 16 kts 117°
2026-05-05 09:03 36.67685 -4.48231 39 ft 15 kts 117°
2026-05-05 09:03 36.67637 -4.48115 39 ft 15 kts 117°
2026-05-05 09:03 36.67598 -4.48004 36 ft 14 kts 90°
2026-05-05 09:04 36.67650 -4.47898 33 ft 15 kts 55°
2026-05-05 09:04 36.67713 -4.47783 30 ft 17 kts 56°
2026-05-05 09:04 36.67795 -4.47701 33 ft 16 kts 342°
2026-05-05 09:04 36.67857 -4.47815 33 ft 19 kts 297°
2026-05-05 09:05 36.67999 -4.48151 37 ft 78 kts 298°
2026-05-05 09:05 36.68351 -4.48986 42 ft 137 kts 297°
2026-05-05 09:05 36.68851 -4.50184 325 ft 164 kts 297°
2026-05-05 09:05 36.69472 -4.51409 1066 ft 172 kts 313°
2026-05-05 09:06 36.70315 -4.52456 1927 ft 168 kts 315°
2026-05-05 09:06 36.71176 -4.53564 2384 ft 192 kts 314°
2026-05-05 09:06 36.72128 -4.54814 2837 ft 201 kts 314°
2026-05-05 09:06 36.73100 -4.56122 3344 ft 209 kts 314°
2026-05-05 09:07 36.74096 -4.57458 3975 ft 211 kts 314°
2026-05-05 09:07 36.75101 -4.58780 4698 ft 210 kts 314°
2026-05-05 09:07 36.76158 -4.60147 5088 ft 230 kts 314°
2026-05-05 09:07 36.77351 -4.61529 5690 ft 239 kts 328°
2026-05-05 09:08 36.78914 -4.62155 6609 ft 235 kts 349°
2026-05-05 09:08 36.80558 -4.62090 7277 ft 243 kts 12°
2026-05-05 09:08 36.82105 -4.61210 7970 ft 250 kts 32°
2026-05-05 09:08 36.83487 -4.59772 8451 ft 265 kts 40°
2026-05-05 09:09 36.84840 -4.58173 9138 ft 270 kts 41°
2026-05-05 09:09 36.86208 -4.56551 9736 ft 278 kts 40°
2026-05-05 09:09 36.87644 -4.54886 10349 ft 284 kts 39°
2026-05-05 09:09 36.89119 -4.53221 11004 ft 287 kts 39°
2026-05-05 09:10 36.90618 -4.51536 11665 ft 291 kts 39°
2026-05-05 09:10 36.92147 -4.49835 12261 ft 298 kts 38°
2026-05-05 09:10 36.93711 -4.48109 12892 ft 302 kts 38°
2026-05-05 09:10 36.95297 -4.46359 13588 ft 306 kts 38°
2026-05-05 09:11 36.96901 -4.44590 14157 ft 310 kts 37°
2026-05-05 09:11 36.98548 -4.42825 14720 ft 313 kts 33°
2026-05-05 09:11 37.00384 -4.41222 14902 ft 332 kts 28°
2026-05-05 09:11 37.02398 -4.39649 15084 ft 351 kts 27°
2026-05-05 09:12 37.04536 -4.38020 15232 ft 370 kts 27°
2026-05-05 09:12 37.06791 -4.36295 15479 ft 386 kts 27°
2026-05-05 09:12 37.09094 -4.34508 16042 ft 390 kts 28°
2026-05-05 09:12 37.11397 -4.32699 16689 ft 393 kts 28°
2026-05-05 09:13 37.13723 -4.30859 17277 ft 398 kts 28°
2026-05-05 09:13 37.16072 -4.28992 17853 ft 402 kts 28°
2026-05-05 09:13 37.18444 -4.27101 18435 ft 405 kts 28°
2026-05-05 09:13 37.20834 -4.25193 18940 ft 409 kts 28°
2026-05-05 09:14 37.23246 -4.23266 19439 ft 413 kts 28°
2026-05-05 09:14 37.25653 -4.21341 19926 ft 417 kts 28°
2026-05-05 09:14 37.28107 -4.19377 20353 ft 421 kts 28°
2026-05-05 09:14 37.30587 -4.17391 20870 ft 424 kts 28°
2026-05-05 09:15 37.33080 -4.15394 21397 ft 427 kts 28°
2026-05-05 09:15 37.35593 -4.13377 21873 ft 430 kts 27°
2026-05-05 09:15 37.38124 -4.11347 22331 ft 434 kts 27°
2026-05-05 09:15 37.40683 -4.09292 22776 ft 438 kts 27°
2026-05-05 09:16 37.43261 -4.07220 23249 ft 442 kts 27°
2026-05-05 09:16 37.45864 -4.05125 23686 ft 445 kts 27°
2026-05-05 09:16 37.48483 -4.03015 24049 ft 448 kts 27°
2026-05-05 09:16 37.51119 -4.00891 24447 ft 451 kts 27°
2026-05-05 09:17 37.53768 -3.98753 24829 ft 453 kts 27°
2026-05-05 09:17 37.56431 -3.96602 25175 ft 457 kts 27°
2026-05-05 09:17 37.59119 -3.94431 25507 ft 460 kts 27°
2026-05-05 09:17 37.61827 -3.92241 25860 ft 463 kts 27°
2026-05-05 09:18 37.64547 -3.90039 26206 ft 466 kts 27°
2026-05-05 09:18 37.67287 -3.87819 26558 ft 469 kts 27°
2026-05-05 09:18 37.70036 -3.85588 26890 ft 472 kts 27°
2026-05-05 09:18 37.72807 -3.83339 27236 ft 475 kts 27°
2026-05-05 09:19 37.74649 -3.81842 27458 ft 476 kts 27°
2026-05-05 09:19 37.77444 -3.79569 27744 ft 479 kts 27°
2026-05-05 09:19 37.80258 -3.77280 28041 ft 482 kts 27°
2026-05-05 09:19 37.83097 -3.74999 28353 ft 483 kts 24°
2026-05-05 09:20 37.86138 -3.73353 28610 ft 472 kts
2026-05-05 09:20 37.89290 -3.72199 28970 ft 472 kts
2026-05-05 09:20 37.92458 -3.71086 29262 ft 474 kts
2026-05-05 09:20 37.95656 -3.69948 29490 ft 479 kts
2026-05-05 09:21 37.98866 -3.68770 29767 ft 481 kts
2026-05-05 09:21 38.02074 -3.67560 30177 ft 481 kts
2026-05-05 09:21 38.05269 -3.66338 30616 ft 478 kts
2026-05-05 09:21 38.08442 -3.65120 30987 ft 476 kts
2026-05-05 09:22 38.11625 -3.63903 31293 ft 477 kts
2026-05-05 09:22 38.14800 -3.62702 31593 ft 475 kts
2026-05-05 09:22 38.18003 -3.61959 31913 ft 462 kts 356°
2026-05-05 09:22 38.21189 -3.61619 32303 ft 457 kts 354°
2026-05-05 09:23 38.24311 -3.61387 32661 ft 455 kts 353°
2026-05-05 09:23 38.27511 -3.61169 32980 ft 454 kts 353°
2026-05-05 09:23 38.30664 -3.60937 33260 ft 454 kts 354°
2026-05-05 09:23 38.33823 -3.60677 33602 ft 454 kts 354°
2026-05-05 09:24 38.36931 -3.60397 33964 ft 452 kts 354°
2026-05-05 09:24 38.43237 -3.59794 34032 ft 455 kts 354°
2026-05-05 09:25 38.49541 -3.59171 34021 ft 452 kts 354°
2026-05-05 09:25 38.52637 -3.58865 34017 ft 451 kts 354°
2026-05-05 09:26 38.61847 -3.57961 34010 ft 450 kts 354°
2026-05-05 09:26 38.68091 -3.57349 34007 ft 450 kts 354°
2026-05-05 09:27 38.74328 -3.56737 34017 ft 450 kts 354°
2026-05-05 09:27 38.80588 -3.56121 34018 ft 451 kts 353°
2026-05-05 09:28 38.86865 -3.55502 34011 ft 453 kts 353°
2026-05-05 09:28 38.93170 -3.54879 34013 ft 455 kts 353°
2026-05-05 09:29 38.99496 -3.54251 34012 ft 457 kts 353°
2026-05-05 09:29 39.05848 -3.53624 34007 ft 458 kts 353°
2026-05-05 09:30 39.12166 -3.53001 34004 ft 459 kts 353°
2026-05-05 09:30 39.18543 -3.52371 34008 ft 460 kts 354°
2026-05-05 09:31 39.24925 -3.51738 34003 ft 460 kts 354°
2026-05-05 09:31 39.31303 -3.51104 34002 ft 460 kts 354°
2026-05-05 09:32 39.37685 -3.50469 34000 ft 459 kts 354°
2026-05-05 09:32 39.44051 -3.49834 33997 ft 459 kts 354°
2026-05-05 09:33 39.50416 -3.49199 33996 ft 458 kts 355°
2026-05-05 09:33 39.56777 -3.48562 34002 ft 458 kts 355°
2026-05-05 09:34 39.63128 -3.47921 33998 ft 457 kts 355°
2026-05-05 09:34 39.69472 -3.47277 33993 ft 457 kts 355°
2026-05-05 09:35 39.74889 -3.46727 33999 ft 457 kts 355°
2026-05-05 09:35 39.84421 -3.45305 34006 ft 463 kts 360°
2026-05-05 09:36 39.90786 -3.43951 34002 ft 464 kts
2026-05-05 09:36 39.97162 -3.42611 33998 ft 464 kts 360°
2026-05-05 09:37 40.03545 -3.41314 34000 ft 464 kts 360°
2026-05-05 09:37 40.09938 -3.40032 34008 ft 465 kts 360°
2026-05-05 09:38 40.16357 -3.38745 33997 ft 467 kts 360°
2026-05-05 09:38 40.22785 -3.37451 34004 ft 468 kts 360°
2026-05-05 09:39 40.29194 -3.36158 33991 ft 470 kts
2026-05-05 09:39 40.35669 -3.34848 33995 ft 471 kts
2026-05-05 09:40 40.42161 -3.33532 34010 ft 473 kts
2026-05-05 09:40 40.48681 -3.32208 34011 ft 474 kts
2026-05-05 09:41 40.55206 -3.30880 34000 ft 475 kts
2026-05-05 09:41 40.61738 -3.29547 34002 ft 475 kts
2026-05-05 09:42 40.68277 -3.28211 33995 ft 475 kts
2026-05-05 09:42 40.74767 -3.26882 33981 ft 475 kts
2026-05-05 09:43 40.81292 -3.25544 33998 ft 474 kts
2026-05-05 09:43 40.87807 -3.24191 33989 ft 475 kts
2026-05-05 09:44 40.94318 -3.22732 33988 ft 475 kts
2026-05-05 09:44 41.00821 -3.21248 34005 ft 473 kts
2026-05-05 09:45 41.07303 -3.19781 34003 ft 472 kts
2026-05-05 09:45 41.13761 -3.18323 34007 ft 471 kts
2026-05-05 09:46 41.20219 -3.16863 34002 ft 470 kts
2026-05-05 09:46 41.26666 -3.15403 34005 ft 469 kts
2026-05-05 09:47 41.33105 -3.13941 34006 ft 468 kts
2026-05-05 09:47 41.38439 -3.12728 34013 ft 468 kts
2026-05-05 09:48 41.45890 -3.11030 34012 ft 467 kts
2026-05-05 09:48 41.52298 -3.09569 34015 ft 466 kts
2026-05-05 09:49 41.57658 -3.08357 34015 ft 466 kts
2026-05-05 09:49 41.59773 -3.07879 34011 ft 466 kts
2026-05-05 09:50 41.69457 -3.05684 34013 ft 465 kts
2026-05-05 09:50 41.75831 -3.04231 34028 ft 464 kts
2026-05-05 09:51 41.82197 -3.02769 34023 ft 464 kts
2026-05-05 09:51 41.88569 -3.01300 34019 ft 465 kts
2026-05-05 09:52 41.94946 -2.99828 34014 ft 465 kts
2026-05-05 09:52 42.01326 -2.98352 34019 ft 465 kts
2026-05-05 09:53 42.07674 -2.96882 34001 ft 466 kts
2026-05-05 09:53 42.14068 -2.95397 33998 ft 467 kts
2026-05-05 09:54 42.20460 -2.93908 33991 ft 466 kts
2026-05-05 09:54 42.26853 -2.92418 33991 ft 466 kts
2026-05-05 09:55 42.33227 -2.90929 34004 ft 464 kts
2026-05-05 09:55 42.39589 -2.89440 34004 ft 463 kts
2026-05-05 09:56 42.45748 -2.86731 34011 ft 472 kts 25°
2026-05-05 09:56 42.48546 -2.84380 34002 ft 475 kts 36°
2026-05-05 09:56 42.51071 -2.81478 34018 ft 476 kts 39°
2026-05-05 09:57 42.55966 -2.75432 33999 ft 476 kts 40°
2026-05-05 09:57 42.60865 -2.69381 34003 ft 476 kts 40°
2026-05-05 09:58 42.65800 -2.63374 33998 ft 476 kts 40°
2026-05-05 09:58 42.70741 -2.57387 34003 ft 476 kts 40°
2026-05-05 09:59 42.75688 -2.51382 34002 ft 476 kts 40°
2026-05-05 09:59 42.80630 -2.45363 34005 ft 477 kts 40°
2026-05-05 10:00 42.85572 -2.39329 34004 ft 477 kts 40°
2026-05-05 10:00 42.90484 -2.33318 34014 ft 477 kts 40°
2026-05-05 10:01 42.94620 -2.28247 34019 ft 478 kts 40°
2026-05-05 10:01 42.99564 -2.22171 34030 ft 478 kts 40°
2026-05-05 10:02 43.04502 -2.16068 34022 ft 479 kts 40°
2026-05-05 10:02 43.10245 -2.08953 34023 ft 479 kts 40°
2026-05-05 10:03 43.14384 -2.03822 34023 ft 479 kts 40°
2026-05-05 10:03 43.19293 -1.97726 34022 ft 479 kts 40°
2026-05-05 10:04 43.24220 -1.91592 34042 ft 478 kts 41°
2026-05-05 10:04 43.29141 -1.85453 34032 ft 478 kts 41°
2026-05-05 10:05 43.34524 -1.80181 34027 ft 473 kts 26°
2026-05-05 10:05 43.40294 -1.75817 34026 ft 474 kts 29°
2026-05-05 10:06 43.45826 -1.70849 34025 ft 475 kts 32°
2026-05-05 10:06 43.51300 -1.65735 34020 ft 475 kts 32°
2026-05-05 10:07 43.56800 -1.60671 34023 ft 475 kts 31°
2026-05-05 10:07 43.62314 -1.55652 34020 ft 475 kts 31°
2026-05-05 10:08 43.67799 -1.50666 34014 ft 475 kts 31°
2026-05-05 10:08 43.73307 -1.45648 34015 ft 474 kts 32°
2026-05-05 10:09 43.78819 -1.40610 34014 ft 474 kts 32°
2026-05-05 10:09 43.84318 -1.35572 34012 ft 474 kts 32°
2026-05-05 10:10 43.89807 -1.30532 34007 ft 473 kts 32°
2026-05-05 10:10 43.95298 -1.25479 34010 ft 473 kts 32°
2026-05-05 10:11 44.00776 -1.20426 34004 ft 472 kts 32°
2026-05-05 10:11 44.06240 -1.15375 33992 ft 472 kts 32°
2026-05-05 10:12 44.11698 -1.10318 33986 ft 471 kts 32°
2026-05-05 10:12 44.17108 -1.05294 33978 ft 470 kts 32°
2026-05-05 10:13 44.22544 -1.00234 33972 ft 469 kts 33°
2026-05-05 10:13 44.27973 -0.95170 33970 ft 469 kts 33°
2026-05-05 10:14 44.33383 -0.90111 33975 ft 468 kts 33°
2026-05-05 10:14 44.38798 -0.85043 33976 ft 467 kts 32°
2026-05-05 10:15 44.44567 -0.80945 33978 ft 465 kts 22°